Hofstra Soccer Stadium NY US WEATHERSTEM current weather conditions

sailwx.info

Air temperature -1.0° C
Dewpoint -15.6° C

Last reported at 2020-Jan-20 22:00 UTC.
Time now 2020-Jan-20 23:01 UTC

Location: N 40°43' W 073°36'.
View on Google Maps.

See reports from other nearby stations

  
Tides and Currents Weather Stations Pressure Air Temp Water Temp Dewpoint Dewpoint Depression Visibility Wind Speed Wind Dir Waves Ship Positions
date/time (UTC)wind fromknots sea level pressurealtimeterstation pressurevisibilityair tempwater tempwave heightnotes
2020-Jan-20 22:00 -1.0
2020-Jan-20 21:50 -0.9
2020-Jan-20 21:30 -0.8
2020-Jan-20 21:20 360 1 gusting 5 -0.8
2020-Jan-20 21:10 -0.8
2020-Jan-20 21:00 -0.8
2020-Jan-20 20:50 -0.8
2020-Jan-20 20:40 011 2 gusting 5 -0.8
2020-Jan-20 20:30 -0.9
2020-Jan-20 20:20 -0.9
2020-Jan-20 20:10 049 1 gusting 5 -0.8
2020-Jan-20 20:00 -0.9
2020-Jan-20 19:50 360 2 gusting 9 -1.1
2020-Jan-20 19:40 355 4 gusting 6 -1.1
2020-Jan-20 19:30 -1.2
2020-Jan-20 19:20 -1.1
2020-Jan-20 19:10 333 4 gusting 6 -1.2
2020-Jan-20 19:00 315 3 gusting 5 -1.4
2020-Jan-20 18:50 -1.7
2020-Jan-20 18:40 311 3 gusting 11 -1.7
2020-Jan-20 18:30 348 4 gusting 12 -1.8
2020-Jan-20 18:20 025 3 gusting 6 -1.9
2020-Jan-20 18:10 030 1 gusting 9 -2.2
2020-Jan-20 18:00 325 8 gusting 11 -2.3
2020-Jan-20 17:50 -2.2
2020-Jan-20 17:40 011 4 gusting 8 -2.4
2020-Jan-20 17:20 005 0 gusting 6 -2.3
2020-Jan-20 17:10 340 1 gusting 8 -2.7
2020-Jan-20 17:00 -2.8
2020-Jan-20 16:50 343 2 gusting 6 -3.0
2020-Jan-20 16:40 340 3 gusting 5 -3.2
2020-Jan-20 16:20 048 0 gusting 6 -3.6
2020-Jan-20 16:10 -3.6
2020-Jan-20 16:00 036 0 gusting 9 -3.8
2020-Jan-20 15:50 005 3 gusting 7 -3.9
2020-Jan-20 15:40 -3.9
2020-Jan-20 15:20 031 2 gusting 5 -4.6
2020-Jan-20 15:10 017 2 gusting 6 -4.8
2020-Jan-20 15:00 038 1 gusting 6 -4.9
2020-Jan-20 14:50 -5.1
2020-Jan-20 14:40 009 0 gusting 7 -5.2
2020-Jan-20 14:20 005 6 gusting 7 -5.3
2020-Jan-20 14:10 -5.3
2020-Jan-20 14:00 015 3 gusting 7 -5.4
2020-Jan-20 13:50 350 3 gusting 6 -5.7
2020-Jan-20 13:20 360 4 gusting 5 -5.9
2020-Jan-20 13:10 337 0 gusting 6 -6.0
2020-Jan-20 13:00 009 1 gusting 6 -6.1
2020-Jan-20 12:50 343 3 gusting 7 -6.2
2020-Jan-20 12:40 -6.3
2020-Jan-20 12:20 -6.3
2020-Jan-20 12:10 346 1 gusting 6 -6.3
2020-Jan-20 12:00 -6.3
2020-Jan-20 11:50 017 3 gusting 6 -6.2
2020-Jan-20 11:40 -6.2
2020-Jan-20 11:20 -6.1
2020-Jan-20 11:10 360 2 gusting 6 -6.0
2020-Jan-20 11:00 -5.9
2020-Jan-20 10:50 -5.9
2020-Jan-20 10:40 -5.9
2020-Jan-20 10:20 005 2 gusting 6 -5.8
2020-Jan-20 10:10 -5.8
2020-Jan-20 10:00 -5.8
2020-Jan-20 09:50 -5.7
2020-Jan-20 09:40 321 3 gusting 7 -5.6
2020-Jan-20 09:20 345 2 gusting 7 -5.5
2020-Jan-20 09:10 338 0 gusting 7 -5.4
2020-Jan-20 09:00 -5.3
2020-Jan-20 08:50 -5.2
2020-Jan-20 08:40 350 2 gusting 9 -5.1
2020-Jan-20 08:20 320 3 gusting 8 -4.6
2020-Jan-20 08:10 338 1 gusting 10 -4.4
2020-Jan-20 08:00 344 2 gusting 6 -4.3
2020-Jan-20 07:50 -4.1
2020-Jan-20 07:40 355 1 gusting 10 -4.0
2020-Jan-20 07:20 005 3 gusting 8 -3.8
2020-Jan-20 07:10 015 2 gusting 13 -3.6
2020-Jan-20 07:00 360 1 gusting 8 -3.5
2020-Jan-20 06:50 320 2 gusting 7 -3.4
2020-Jan-20 06:40 324 4 gusting 8 -3.3
2020-Jan-20 06:20 329 3 gusting 11 -3.1
2020-Jan-20 06:10 313 3 gusting 8 -3.0
2020-Jan-20 06:00 009 2 gusting 9 -2.8
2020-Jan-20 05:50 330 3 gusting 11 -2.7
2020-Jan-20 05:40 005 2 gusting 18 -2.6
2020-Jan-20 05:20 308 2 gusting 9 -2.1
2020-Jan-20 05:10 355 4 gusting 9 -1.9
2020-Jan-20 05:00 005 6 gusting 11 -1.8
2020-Jan-20 04:50 350 7 gusting 15 -1.5
2020-Jan-20 04:40 336 4 gusting 13 -1.1
2020-Jan-20 04:20 347 2 gusting 9 -0.3
2020-Jan-20 04:10 316 6 gusting 9 -0.2
2020-Jan-20 04:00 -0.1
2020-Jan-20 03:50 -0.1
2020-Jan-20 03:40 332 1 gusting 7 -0.1
2020-Jan-20 03:20 330 2 gusting 5 0.1
2020-Jan-20 03:10 017 2 gusting 8 0.3
2020-Jan-20 03:00 0.4
2020-Jan-20 02:40 348 2 gusting 6 0.4
2020-Jan-20 02:20 346 0 gusting 4 0.6
2020-Jan-20 02:10 317 5 gusting 5 0.7
2020-Jan-20 02:00 326 1 gusting 7 0.8
2020-Jan-20 01:50 0.8
2020-Jan-20 01:20 016 2 gusting 8 1.2
2020-Jan-20 01:10 346 2 gusting 8 1.3
2020-Jan-20 01:00 011 2 gusting 6 1.4
2020-Jan-20 00:50 304 2 gusting 7 1.5
2020-Jan-20 00:40 345 2 gusting 10 1.6
2020-Jan-20 00:20 301 2 gusting 9 1.9
2020-Jan-20 00:10 297 2 gusting 8 2.1
2020-Jan-20 00:00 2.2
2020-Jan-19 23:50 2.2
2020-Jan-19 23:40 2.4
2020-Jan-19 23:20 337 5 gusting 7 2.6
2020-Jan-19 23:10 341 2 gusting 5 2.8
2020-Jan-19 23:00 2.9
2020-Jan-19 22:50 024 1 gusting 8 3.1
2020-Jan-19 22:40 332 2 gusting 5 3.3
2020-Jan-19 22:20 333 2 gusting 6 3.6
2020-Jan-19 22:10 005 3 gusting 6 3.7
2020-Jan-19 22:00 3.8
2020-Jan-19 21:50 3.9
2020-Jan-19 21:40 4.1
2020-Jan-19 21:20 338 1 gusting 8 4.6
2020-Jan-19 21:10 355 0 gusting 10 5.1
2020-Jan-19 21:00 360 2 gusting 10 5.1
2020-Jan-19 20:50 341 2 gusting 6 5.1
2020-Jan-19 20:40 5.3
2020-Jan-19 20:20 327 5.9
2020-Jan-19 20:10 024 1 gusting 7 5.8
2020-Jan-19 20:00 6.0
2020-Jan-19 19:50 355 3 gusting 12 5.8
2020-Jan-19 19:30 337 0 gusting 5 5.6
2020-Jan-19 19:20 338 0 gusting 6 5.3
2020-Jan-19 19:10 333 1 gusting 6 5.2
2020-Jan-19 19:00 5.3
2020-Jan-19 18:50 5.2
2020-Jan-19 18:40 5.2
2020-Jan-19 18:30 342 1 gusting 6 5.4
2020-Jan-19 18:20 5.6
2020-Jan-19 18:00 5.2
2020-Jan-19 17:50 350 2 gusting 5 5.3
2020-Jan-19 17:40 5.7
2020-Jan-19 17:30 5.8
2020-Jan-19 17:20 5.7
2020-Jan-19 17:10 5.9
2020-Jan-19 17:00 269 1 gusting 7 5.9
2020-Jan-19 16:50 296 0 gusting 8 6.3
2020-Jan-19 16:30 337 2 gusting 7 6.4
2020-Jan-19 16:20 336 0 gusting 8 6.2
2020-Jan-19 16:10 319 2 gusting 10 6.3
2020-Jan-19 16:00 331 5 gusting 11 6.3
2020-Jan-19 15:40 347 4 gusting 5 6.4
2020-Jan-19 15:30 331 4 gusting 10 6.3
2020-Jan-19 15:10 338 2 gusting 8 6.3
2020-Jan-19 15:00 321 2 gusting 5 6.3
2020-Jan-19 14:50 331 2 gusting 5 6.2
2020-Jan-19 14:40 315 1 gusting 7 6.1
2020-Jan-19 14:30 300 2 gusting 6 6.2
2020-Jan-19 14:20 016 2 gusting 6 6.2
2020-Jan-19 14:10 012 1 gusting 6 6.0
2020-Jan-19 14:00 302 2 gusting 8 5.8
2020-Jan-19 13:50 325 3 gusting 6 4.9
2020-Jan-19 13:40 4.3
2020-Jan-19 13:30 4.2
2020-Jan-19 13:20 3.9
2020-Jan-19 13:10 3.8
2020-Jan-19 13:00 333 4 gusting 7 3.8
2020-Jan-19 12:50 3.7
2020-Jan-19 12:40 321 2 gusting 6 3.3
2020-Jan-19 12:30 3.2
2020-Jan-19 12:20 3.3
2020-Jan-19 12:10 3.3
2020-Jan-19 12:00 3.3
2020-Jan-19 11:50 3.3
2020-Jan-19 11:40 288 1 gusting 6 3.3
2020-Jan-19 11:30 3.1
2020-Jan-19 11:20 2.9
2020-Jan-19 11:10 295 3 gusting 5 2.8
2020-Jan-19 11:00 2.8
2020-Jan-19 10:50 2.7
2020-Jan-19 10:40 283 1 gusting 2 2.7
2020-Jan-19 10:30 2.7
2020-Jan-19 10:20 2.7
2020-Jan-19 10:10 2.7
2020-Jan-19 10:00 309 4 gusting 6 2.7
2020-Jan-19 09:50 2.7
2020-Jan-19 09:30 286 1 gusting 4 2.8
2020-Jan-19 09:20 315 1 gusting 5 2.8
2020-Jan-19 09:10 2.8
2020-Jan-19 09:00 2.8
2020-Jan-19 08:50 2.7
2020-Jan-19 08:40 2.8
2020-Jan-19 08:30 2.8
2020-Jan-19 08:20 2.9
2020-Jan-19 08:10 2.9
2020-Jan-19 08:00 2.9
2020-Jan-19 07:50 2.9
2020-Jan-19 07:40 3.0
2020-Jan-19 07:30 3.1
2020-Jan-19 07:20 3.1
2020-Jan-19 07:10 3.1
2020-Jan-19 07:00 3.2
2020-Jan-19 06:50 3.2
2020-Jan-19 06:40 3.2
2020-Jan-19 06:30 3.3
2020-Jan-19 06:20 243 1 gusting 7 3.2
2020-Jan-19 06:10 3.2
2020-Jan-19 06:00 266 3 gusting 6 3.2
2020-Jan-19 05:50 3.1
2020-Jan-19 05:40 3.1
2020-Jan-19 05:30 3.1
2020-Jan-19 05:20 254 2 gusting 6 3.1
2020-Jan-19 05:10 259 3 gusting 6 3.0
2020-Jan-19 05:00 3.0
2020-Jan-19 04:50 3.1
2020-Jan-19 04:40 265 2 gusting 9 3.1
2020-Jan-19 04:30 307 1 gusting 7 3.0
2020-Jan-19 04:20 263 6 gusting 7 3.1
2020-Jan-19 04:10 282 3 gusting 10 3.1
2020-Jan-19 04:00 263 0 gusting 16 3.1
2020-Jan-19 03:50 3.2
2020-Jan-19 03:40 283 3 gusting 8 3.3
2020-Jan-19 03:20 277 3 gusting 12 3.8
2020-Jan-19 03:10 229 2 gusting 14 4.1
2020-Jan-19 03:00 234 3 gusting 9 4.1
2020-Jan-19 02:40 245 0 gusting 6 3.9
2020-Jan-19 02:30 3.7
2020-Jan-19 02:20 3.6
2020-Jan-19 02:10 3.6
2020-Jan-19 02:00 284 0 gusting 3 3.7
2020-Jan-19 01:50 3.6
2020-Jan-19 01:40 226 0 gusting 6 3.2
2020-Jan-19 01:30 211 1 gusting 2 2.9
2020-Jan-19 01:20 231 0 gusting 4 2.7
2020-Jan-19 01:10 2.4
2020-Jan-19 01:00 237 2 gusting 6 2.2
2020-Jan-19 00:50 1.8
2020-Jan-19 00:40 1.4
2020-Jan-19 00:30 1.2
2020-Jan-19 00:20 188 1 gusting 3 1.0
2020-Jan-19 00:10 0.8
2020-Jan-19 00:00 192 3 gusting 4 0.8
2020-Jan-18 23:50 0.8
2020-Jan-18 23:40 0.7
2020-Jan-18 23:30 200 2 gusting 7 0.7
2020-Jan-18 23:20 0.6
2020-Jan-18 23:10 0.4
2020-Jan-18 23:00 218 4 gusting 5 -0.2